Regional Weather Roundup
Issued by NWS Sioux Falls, SD

Home | Current Version | Previous Version | Text Only | Print | Product List | Glossary On
Versions: 1 2 3 4 5 6 7 8 9 10 11 12 13 14 15 16 17 18 19 20 21 22 23 24 25 26 27 28 29 30 31 32 33 34 35 36 37 38 39 40 41 42 43 44 45 46 47 48 49 50
000
ASUS43 KFSD 030902
RWRFSD

WEATHER ROUNDUP FOR SE SOUTH DAKOTA/SW MINNESOTA/NW IOWA
NATIONAL WEATHER SERVICE SIOUX FALLS SD
400 AM CDT SUN MAY 03 2015

NOTE: "FAIR" INDICATES FEW OR NO CLOUDS BELOW 12,000 FEET WITH NO
SIGNIFICANT WEATHER AND OR OBSTRUCTIONS TO VISIBILITY.


SDZ038>040-050-052>070-031000-
SOUTHEAST SOUTH DAKOTA

CITY           SKY/WX    TMP DP  RH WIND       PRES   REMARKS
BROOKINGS      CLOUDY    57  54  88 N10       29.73R
CHAMBERLAIN    NOT AVBL
HURON          PTCLDY    61  54  77 SE6       29.66R
MADISON        FAIR      57  57 100 S10       29.69S
MITCHELL       PTCLDY    60  55  83 SE8       29.68F
SIOUX FALLS    CLOUDY    62  54  74 S10       29.68F
WINNER         FAIR      55  40  56 W5        29.69S
YANKTON        MOCLDY    66  52  59 S21G30    29.67F
$$

MNZ071-072-080-081-089-090-097-098-031000-
SOUTHWEST MINNESOTA

CITY           SKY/WX    TMP DP  RH WIND       PRES   REMARKS
FAIRMONT       CLOUDY    54  46  76 S9        29.75F
JACKSON        CLOUDY    55  50  82 SE9       29.74F
LUVERNE        CLOUDY    59  52  77 SE6       29.71F
MARSHALL       CLOUDY    61  48  63 S13       29.70F
MONTEVIDEO     MOCLDY    61  54  77 S8        29.71S
REDWOOD FALLS  CLOUDY    55  50  83 SE8       29.73F
TRACY          CLOUDY    60  52  76 N5        29.73R
WORTHINGTON    CLOUDY    55  48  76 S12       29.72S
$$

IAZ001>003-012>014-020>022-031-032-NEZ013-014-SDZ071-031000-
NORTHWEST IOWA

CITY           SKY/WX    TMP DP  RH WIND       PRES   REMARKS
DENISON        CLOUDY    66  48  52 S17G26    29.70R
ESTHERVILLE    CLOUDY    54  51  90 SE10      29.74S
SIOUX CITY     CLOUDY    60  51  72 E9        29.70F
SPENCER        CLOUDY    54  51  90 SE6       29.73F
$$

ABBREVIATIONS USED IN REMARKS
   TC - TEMPERATURE IN CELSIUS
  WCI - WIND CHILL INDEX
   HX - HEAT INDEX
  VSB - VISIBILITY




USA.gov is the U.S. government's official web portal to all federal, state and local government web resources and services.